Home   Weather   Mons   Past weeks

Flag for Belgium Past Weather in Mons, Belgium — Yesterday and Last 2 Weeks

Now
45 °F

Overcast.


Feels Like: 39 °F
Forecast: 38 / 48 °F
Wind: 12 mph from Southwest

Location: Chievres

Current Time: Dec 9, 2016 at 4:56:47 am

Latest Report: Dec 9, 2016 at 3:55 am


Visibility: 4 mi

Pressure: 30.39 "Hg

Humidity: 87%

Dew Point: 41 °F

Location of MonsLocation

Past Weather in Mons — Graph

°F

Mons Temperature Yesterday

Maximum temperature yesterday: 46 °F (at 1:55 pm)
Minimum temperature yesterday: 37 °F (at 4:25 am)
Average temperature yesterday: 42 °F

High & Low Weather Summary for the Past Weeks

 TemperatureHumidityPressure
High52 °F (Nov 24, 10:55 am)100% (Nov 26, 11:55 pm)30.57 "Hg (Nov 26, 11:55 pm)
Low23 °F (Nov 30, 5:25 am)49% (Dec 4, 1:55 pm)30.04 "Hg (Nov 24, 3:25 am)
Average38 °F84%30.30 "Hg
* Reported Nov 24 3:25 am — Dec 9 3:25 am, Mons, Weather by CustomWeather, © 2016

Note: Actual official high and low records may vary slightly from our data, if they occured in-between our weather recording intervals... More about our weather records

Advertising

Mons Weather History for the Previous 24 Hours

Scroll right to see more
 ConditionsComfort  
Time TempWeatherWind HumidityBarometerVisibility
3:25 am
Fri, Dec 9
45 °FOvercast.10 mph81%30.42 "HgN/A
2:55 am45 °FOvercast.10 mph81%30.42 "HgN/A
2:25 am45 °FOvercast.9 mph81%30.42 "HgN/A
1:55 am46 °FOvercast.10 mph76%30.39 "HgN/A
1:25 am46 °FOvercast.9 mph76%30.39 "HgN/A
12:55 am45 °FOvercast.7 mph81%30.39 "HgN/A
12:25 am45 °FOvercast.10 mph81%30.39 "HgN/A
12:03 am45 °FOvercast.8 mph81%30.39 "HgN/A
11:55 pm
Thu, Dec 8
45 °FOvercast.8 mph81%30.39 "HgN/A
11:25 pm45 °FOvercast.9 mph76%30.39 "HgN/A
10:55 pm45 °FOvercast.9 mph76%30.42 "HgN/A
10:25 pm45 °FOvercast.7 mph76%30.39 "HgN/A
9:55 pm45 °FOvercast.7 mph76%30.39 "HgN/A
9:25 pm45 °FOvercast.9 mph76%30.39 "HgN/A
8:55 pm46 °FOvercast.13 mph71%30.39 "HgN/A
8:25 pm45 °FPartly cloudy.13 mph76%30.39 "HgN/A
7:55 pm45 °FMostly cloudy.17 mph76%30.36 "HgN/A
7:25 pm45 °FPassing clouds.14 mph76%30.39 "HgN/A
6:55 pm45 °FPassing clouds.10 mph76%30.36 "HgN/A
6:25 pm45 °FQuite cool.14 mph76%30.36 "HgN/A
5:55 pm43 °FQuite cool.13 mph81%30.36 "HgN/A
5:25 pm45 °FQuite cool.13 mph76%30.36 "HgN/A
4:55 pm45 °FQuite cool.15 mph76%30.36 "HgN/A
4:25 pm45 °FQuite cool.14 mph76%30.36 "HgN/A
3:55 pm45 °FQuite cool.14 mph76%30.36 "HgN/A
3:25 pm45 °FQuite cool.14 mph76%30.36 "HgN/A
2:55 pm45 °FQuite cool.14 mph76%30.36 "HgN/A
2:25 pm46 °FPassing clouds.12 mph71%30.36 "HgN/A
1:55 pm46 °FPartly sunny.10 mph71%30.39 "HgN/A
1:25 pm45 °FPartly sunny.14 mph76%30.39 "HgN/A
12:55 pm45 °FPartly sunny.13 mph71%30.39 "HgN/A
12:25 pm45 °FPassing clouds.12 mph71%30.39 "HgN/A
11:55 am43 °FScattered clouds.12 mph76%30.39 "HgN/A
11:25 am41 °FScattered clouds.7 mph76%30.39 "HgN/A
10:55 am39 °FPartly sunny.9 mph81%30.42 "Hg6 mi
10:25 am39 °FPartly sunny.7 mph81%30.42 "Hg6 mi
9:55 am39 °FPartly sunny.12 mph81%30.42 "HgN/A
9:25 am37 °FPartly sunny.10 mph81%30.42 "HgN/A
8:55 am37 °FBroken clouds.10 mph81%30.42 "HgN/A
8:25 am37 °FPassing clouds.9 mph81%30.42 "HgN/A
7:55 am37 °FPassing clouds.8 mph81%30.42 "HgN/A
7:25 am37 °FPartly cloudy.8 mph81%30.42 "HgN/A
6:55 am37 °FPassing clouds.9 mph81%30.42 "HgN/A
6:25 am37 °FPassing clouds.7 mph81%30.42 "HgN/A
5:55 am37 °FPassing clouds.8 mph81%30.42 "HgN/A
5:25 am37 °FPassing clouds.12 mph81%30.42 "HgN/A
4:55 am37 °FPassing clouds.8 mph81%30.42 "HgN/A
4:25 am37 °FPassing clouds.7 mph81%30.42 "HgN/A
Weather by CustomWeather, © 2016

See weather overviewHow to use our weather pages